#timestamp,LO_Frequency,Hit,StdDev 
1682784015.2,286047002.3,N
1682784035.1,286047000.0,N
1682784036.0,286047000.0,N
1682784055.8,286047002.7,N
1682784075.7,286046999.9,N
1682784095.5,286047002.3,N
1682784115.3,286047002.7,N
1682784135.2,286047000.0,N
1682784155.0,286047002.6,N
1682784155.9,286047002.6,N
1682784175.8,286047002.1,N
1682784195.6,286047000.1,N
1682784215.4,286046999.9,N
1682784235.3,286047002.6,N
1682784255.1,286047002.8,N
1682784275.9,286047002.3,N
1682784295.7,286047002.7,N
1682784315.5,286047000.1,N
1682784335.4,286047002.6,N
1682784355.2,286047002.5,N
1682784375.1,286047002.2,N
1682784376.0,286047002.2,N
1682784395.8,286046999.8,N
1682784415.6,286047002.4,N
1682784435.5,286047002.7,N
1682784455.3,286047002.4,N
1682784475.2,286047002.2,N
1682784495.9,286046999.9,N
1682784515.7,286047000.5,N
1682784535.6,286047000.4,N
1682784555.4,286047002.8,N
1682784575.3,286047000.2,N
1682784595.1,286047002.6,N
1682784596.0,286047002.6,N
1682784615.8,286047002.3,N
1682784635.7,286047001.7,N
1682784655.5,286047004.1,Y
1682784675.4,286047002.1,P
1682784695.2,286047000.3,N
1682784715.0,286047000.5,N
1682784715.9,286047000.5,N
1682784735.8,286047001.1,N
1682784755.6,286047001.2,N
1682784775.4,286046998.3,N
1682784795.3,286046999.6,N
1682784815.1,286046999.2,N
1682784835.9,286046998.3,N
1682784855.7,286046996.9,N
1682784875.5,286046996.9,N
1682784895.4,286046999.0,N
1682784915.2,286047001.2,N
1682784935.0,286046999.3,N
1682784935.9,286046999.3,N
1682784955.8,286046999.3,N
1682784975.6,286046999.0,N
1682784995.5,286046998.9,N
1682785015.3,286046999.4,N
1682785035.1,286046996.7,N
1682785055.9,286046996.8,N
1682785075.7,286046996.5,N
1682785095.5,286046996.7,N
1682785115.4,286046997.2,N
1682785135.2,286046996.8,N
1682785155.1,286046996.7,N
1682785156.0,286046996.7,N
1682785175.8,286046997.7,N
1682785195.6,286046995.8,N
1682785215.5,286046995.8,N
1682785235.3,286046996.1,N
1682785255.1,286046993.8,Y
1682785275.9,286046995.4,P
1682785295.7,286046998.0,N
1682785315.6,286046997.8,N
1682785335.4,286046995.2,Y
1682785355.2,286046996.6,P
1682785375.1,286046996.6,P
1682785376.0,286046996.6,P
1682785395.8,286046999.3,N
1682785415.7,286046999.4,N
1682785435.5,286046996.5,N
1682785455.3,286046996.6,N
1682785475.2,286046999.0,N
1682785495.9,286046999.6,N
1682785515.7,286046996.9,N
1682785535.6,286046996.6,N
1682785555.4,286046999.0,N
1682785575.3,286046999.2,N
1682785595.1,286046996.5,N
1682785596.0,286046996.5,N
1682785615.8,286046996.5,N
1682785635.7,286046996.6,N
1682785655.5,286046997.2,N
1682785675.3,286047011.9,Y
1682785695.2,286047001.0,P
1682785715.0,286046998.1,N
1682785715.9,286046998.1,N
1682785735.8,286047000.8,N
1682785755.6,286046998.8,N
1682785775.4,286047001.1,N
1682785795.3,286046998.4,N
1682785815.1,286046999.5,N
1682785835.8,286046998.8,N
1682785855.7,286046998.6,N
1682785875.5,286046999.0,N
1682785895.4,286046998.3,N
1682785915.2,286046998.9,N
1682785935.0,286046999.1,N
1682785935.9,286046999.1,N
1682785955.8,286046999.2,N
1682785975.6,286046997.2,N
1682785995.4,286046997.1,N
1682786015.3,286046997.7,N
1682786035.1,286046997.2,N
1682786055.9,286046997.2,N
1682786075.7,286046995.0,Y
1682786095.5,286046999.1,P
1682786115.4,286046996.7,P
1682786135.2,286046999.2,N
1682786155.0,286046999.5,N
1682786155.9,286046999.5,N
1682786175.8,286046996.9,Y
1682786195.6,286046998.6,P
1682786215.5,286047000.5,P
1682786235.3,286046998.1,N
1682786255.1,286046998.2,N
1682786275.9,286046998.3,N
1682786295.7,286046999.5,N
1682786315.6,286047001.2,N
1682786335.4,286046999.0,N
1682786355.2,286046999.6,N
1682786375.1,286046997.3,N
1682786376.0,286046997.3,N
1682786395.8,286046997.4,N
1682786415.6,286046997.3,N
1682786435.5,286046999.1,N
1682786455.3,286046998.9,N
1682786475.2,286046998.1,N
1682786495.9,286046999.3,N
1682786515.7,286046998.9,N
1682786535.6,286046998.8,N
1682786555.4,286046996.9,Y
1682786575.2,286046998.2,P
1682786595.1,286046998.4,P
1682786596.0,286046998.4,P
1682786615.8,286047000.7,Y
1682786635.7,286047002.6,P
1682786655.5,286046999.8,N
1682786675.3,286047002.7,N
1682786695.2,286047002.5,N
1682786715.0,286047002.0,N
1682786715.9,286047002.0,N
1682786735.8,286047000.1,N
1682786755.6,286047001.0,N
1682786775.4,286047000.1,N
1682786795.3,286047000.3,N
1682786815.1,286047000.6,N
1682786835.8,286047000.7,N
1682786855.7,286047000.6,N
1682786875.5,286047000.9,N
1682786895.3,286047000.9,N
1682786915.2,286047000.8,N
1682786935.0,286047001.1,N
1682786935.9,286047001.1,N
1682786955.8,286047000.2,N
1682786975.6,286046999.7,N
1682786995.4,286047001.1,N
1682787015.3,286047000.3,N
1682787035.1,286046999.8,N
1682787055.8,286047000.2,N
1682787075.7,286047002.8,N
1682787095.5,286046999.9,N
1682787115.4,286047000.1,N
1682787135.2,286047000.1,N
1682787155.0,286047002.8,N
1682787155.9,286047002.8,N
1682787175.8,286047002.4,N
1682787195.6,286047000.6,N
1682787215.5,286047000.4,N
1682787235.3,286047001.0,N
1682787255.1,286047000.9,N
1682787275.9,286047000.4,N
1682787295.7,286047000.3,N
1682787315.6,286047000.8,N
1682787335.4,286047000.5,N
1682787355.2,286047000.9,N
1682787375.1,286047000.5,N
1682787376.0,286047000.5,N
1682787395.8,286047001.1,N
1682787415.7,286046999.0,N
1682787435.5,286046999.6,N
1682787455.3,286046998.7,N
1682787475.2,286046996.5,Y
1682787495.0,286046997.1,P
1682787495.9,286046997.1,N
1682787515.7,286046994.9,P
1682787535.6,286046998.0,N
1682787555.4,286046997.1,N
1682787605.3,286046998.9,E
